Language selection

My Weather Profile Weather Topics  | 

West Brevoort - northern half: Past 24 Hour Conditions

 

Cartwright Airport

08:00 AM ADT 09 May 2021
Disclaimer

This table is a summary of hourly weather conditions for the past 24 hours.
Please note that these observations might not always be representative of weather conditions over their associated marine area.

Date / Time
(ADT)
Wind(knots) Conditions Visibility(km) Pressure(kPa) Air tempC) Relative humidity(%) Dew pointC) Wind Chill
09 May 2021
8:00 NE 7 Cloudy 16 101.7 1 93 0 *
7:00 NE 8 Cloudy 16 101.8 0 95 -1 *
6:00 NE 6 Light Snow 4 101.9 0 95 -1 -4
5:00 E 7 Light Rain 11 101.9 0 89 -2 -4
4:00 ENE 9 gust 15 Light Rain 16 102.0 0 84 -2 *
3:00 ENE 6 Cloudy 16 102.1 0 83 -2 *
2:00 ENE 8 Cloudy 16 102.1 0 82 -2 *
1:00 E 6 Cloudy 16 102.3 0 84 -2 *
0:00 ENE 5 Cloudy 16 102.3 0 83 -2 *
08 May 2021
23:00 E 7 Light Rain 16 102.4 0 86 -2 *
22:00 ENE 7 Cloudy 16 102.4 1 86 -2 *
21:00 ENE 6 Cloudy 16 102.5 1 85 -1 *
20:00 ENE 5 Cloudy 16 102.5 1 87 -1 *
19:00 ENE 11 Cloudy 16 102.4 2 85 -1 *
18:00 ENE 8 Cloudy 16 102.5 4 79 0 *
17:00 E 8 Cloudy 16 102.5 4 75 0 *
16:00 NNE 9 Cloudy 16 102.5 4 80 1 *
15:00 ENE 8 Cloudy 16 102.5 4 83 1 *
14:00 ENE 10 Cloudy 16 102.5 3 86 1 *
13:00 E 7 Cloudy 16 102.6 3 91 1 *
12:00 ENE 8 Cloudy 16 102.6 3 91 1 *
11:00 NE 8 Cloudy 16 102.6 2 93 1 *
10:00 NNE 8 Cloudy 16 102.6 2 95 1 *
9:00 ENE 6 Cloudy 16 102.6 2 95 1 *
8:00 ENE 8 Light Rain 16 102.6 1 96 1 *

Zoom-in to make a selection

Map of Atlantic - Labrador marine weather areas Kangiqsualujjuaq Airport Cape Kakkiviak Cape Kiglapait Cartwright Airport CFB Goose Bay Hopedale Mary's Harbour Nain Airport Makkovik Airport Saglek Tukialik Bay
Legend:
buoy Buoy
land station Land Station

Atlantic - Labrador Area

Another Region

What we are doing

Date modified: